Date String (YYYY-MM-DD hh:mm:ss) UTC,Instrument flags,Ambient pressure (hPa),Sample flow (lpm),Bypass flow (lpm),Sample temperature (°C),Ambient temperature (°C),ASC tube jacket temperature (°C),LED temperature (°C),Box temperature (°C),Sample RH (%),Span deviation,Mass concentration (μg/m³),Mass concentration (μg/m³),Mass concentration (μg/m³)
DateTimeUTC,F1_M11,P_M11,Q1_M11,Q2_M11,T1_M11,T2_M11,T3_M11,T4_M11,T5_M11,U1_M11,ZSPAN_M11,X2_M11,X0_M11,X1_M11
2022-10-12 03:00:00,,0826.0,5.01,0.00,30.2,28.7,00.0,39.1,32.0,15.8,0000.0,0005.11,0013.65,0004.09
2022-10-12 03:01:00,,0826.0,5.01,0.00,30.2,28.6,00.0,39.1,32.0,15.8,0000.0,0005.13,0013.07,0004.08
2022-10-12 03:02:00,,0826.1,5.00,0.00,30.2,28.6,00.0,39.1,32.0,15.8,0000.0,0005.16,0012.41,0004.07
2022-10-12 03:03:00,,0826.1,5.00,0.00,30.2,28.6,00.0,39.1,32.0,15.8,0000.0,0005.15,0013.04,0004.07
2022-10-12 03:04:00,,0826.1,5.00,0.00,30.2,28.6,00.0,39.1,32.0,15.8,0000.0,0005.09,0012.95,0004.05
2022-10-12 03:05:00,,0826.2,5.00,0.00,30.2,28.6,00.0,39.1,32.0,15.8,0000.0,0005.07,0013.21,0004.04
2022-10-12 03:06:00,,0826.2,5.00,0.00,30.2,28.6,00.0,39.1,32.0,15.9,0000.0,0005.10,0013.88,0004.02
2022-10-12 03:07:00,,0826.1,4.99,0.00,30.2,28.7,00.0,39.1,32.0,15.8,0000.0,0005.15,0014.66,0004.02
2022-10-12 03:08:00,,0826.2,5.00,0.00,30.2,28.7,00.0,39.1,32.0,15.8,0000.0,0005.19,0015.02,0004.00
2022-10-12 03:09:00,,0826.2,5.01,0.00,30.2,28.7,00.0,39.1,32.0,15.9,0000.0,0005.21,0014.65,0003.99
2022-10-12 03:10:00,,0826.1,4.99,0.00,30.2,28.7,00.0,39.1,32.0,15.8,0000.0,0005.24,0014.67,0003.98
2022-10-12 03:11:00,,0826.2,5.00,0.00,30.2,28.7,00.0,39.1,32.0,15.9,0000.0,0005.23,0014.34,0003.98
2022-10-12 03:12:00,,0826.2,5.00,0.00,30.2,28.7,00.0,39.1,32.0,15.8,0000.0,0005.25,0014.98,0003.98
2022-10-12 03:13:00,,0826.2,5.01,0.00,30.2,28.7,00.0,39.1,32.0,15.8,0000.0,0005.25,0015.14,0003.96
2022-10-12 03:14:00,,0826.2,5.01,0.00,30.2,28.7,00.0,39.1,32.0,15.8,0000.0,0005.23,0015.36,0003.96
2022-10-12 03:15:00,,0826.1,4.99,0.00,30.2,28.7,00.0,39.1,32.0,15.8,0000.0,0005.21,0014.97,0003.95
2022-10-12 03:16:00,,0826.1,5.00,0.00,30.2,28.7,00.0,39.1,32.0,15.8,0000.5,0005.20,0014.49,0003.94
2022-10-12 03:17:00,,0826.1,5.01,0.00,30.2,28.7,00.0,39.1,32.0,15.8,0000.0,0005.15,0014.00,0003.93
2022-10-12 03:18:00,,0826.2,5.00,0.00,30.2,28.7,00.0,39.1,32.0,15.8,0000.0,0005.09,0013.39,0003.91
2022-10-12 03:19:00,,0826.1,5.00,0.00,30.2,28.7,00.0,39.1,32.0,15.8,0000.0,0005.03,0013.05,0003.90
2022-10-12 03:20:00,,0826.1,4.99,0.00,30.2,28.7,00.0,39.1,32.0,15.8,0000.0,0005.05,0013.29,0003.91
2022-10-12 03:21:00,,0826.2,5.01,0.00,30.2,28.7,00.0,39.0,32.0,15.8,0000.0,0005.02,0013.03,0003.91
2022-10-12 03:22:00,,0826.2,5.01,0.00,30.2,28.7,00.0,39.0,32.0,15.8,0000.0,0005.01,0012.73,0003.90
2022-10-12 03:23:00,,0826.2,4.99,0.00,30.2,28.7,00.0,39.0,32.0,15.8,0000.0,0004.94,0012.26,0003.89
2022-10-12 03:24:00,,0826.2,5.00,0.00,30.2,28.7,00.0,39.0,32.0,15.8,0000.0,0004.93,0012.23,0003.89
2022-10-12 03:25:00,,0826.2,5.01,0.00,30.2,28.7,00.0,39.0,32.0,15.8,0000.0,0004.90,0010.92,0003.89
2022-10-12 03:26:00,,0826.2,5.00,0.00,30.2,28.7,00.0,39.0,32.0,15.9,0000.0,0004.86,0010.55,0003.90
2022-10-12 03:27:00,,0826.2,5.00,0.00,30.2,28.7,00.0,39.0,32.0,15.8,0000.0,0004.83,0010.47,0003.90
2022-10-12 03:28:00,,0826.1,4.98,0.00,30.2,28.7,00.0,39.0,32.0,15.8,0000.0,0004.90,0010.90,0003.91
2022-10-12 03:29:00,,0826.1,5.00,0.00,30.2,28.7,00.0,39.0,32.0,15.8,0000.0,0004.92,0011.23,0003.93
2022-10-12 03:30:00,,0826.2,5.00,0.00,30.2,28.7,00.0,39.0,32.0,15.8,0000.0,0004.91,0011.37,0003.93
2022-10-12 03:31:00,,0826.2,5.01,0.00,30.2,28.7,00.0,39.0,32.0,15.8,0000.0,0004.87,0011.32,0003.93
2022-10-12 03:32:00,,0826.2,5.00,0.00,30.2,28.7,00.0,39.0,32.0,15.8,0000.0,0004.89,0012.00,0003.93
2022-10-12 03:33:00,,0826.2,4.99,0.00,30.2,28.7,00.0,39.0,32.0,15.8,0000.0,0004.86,0012.01,0003.93
2022-10-12 03:34:00,,0826.2,4.99,0.00,30.2,28.7,00.0,39.0,32.0,15.8,0000.0,0004.87,0012.27,0003.92
2022-10-12 03:35:00,,0826.2,5.00,0.00,30.2,28.7,00.0,39.0,32.0,15.8,0000.0,0004.88,0012.59,0003.92
2022-10-12 03:36:00,,0826.2,5.02,0.00,30.2,28.7,00.0,39.0,32.0,15.8,0000.0,0004.93,0013.19,0003.91
2022-10-12 03:37:00,,0826.2,4.99,0.00,30.2,28.7,00.0,39.0,32.0,15.8,0000.0,0004.98,0014.22,0003.90
2022-10-12 03:38:00,,0826.2,5.01,0.00,30.2,28.7,00.0,39.0,32.0,15.8,0000.0,0005.04,0015.19,0003.91
2022-10-12 03:39:00,,0826.2,5.00,0.00,30.2,28.6,00.0,39.0,32.0,15.8,0000.0,0005.02,0015.01,0003.91
2022-10-12 03:40:00,,0826.3,5.00,0.00,30.2,28.6,00.0,39.0,32.0,15.9,0000.0,0005.01,0015.21,0003.90
2022-10-12 03:41:00,,0826.3,4.99,0.00,30.2,28.6,00.0,39.0,32.0,15.8,0000.0,0005.02,0015.11,0003.90
2022-10-12 03:42:00,,0826.3,5.00,0.00,30.2,28.6,00.0,39.0,32.0,15.8,0000.0,0005.02,0014.97,0003.90
2022-10-12 03:43:00,,0826.3,5.00,0.00,30.1,28.4,00.0,39.0,31.9,15.8,0000.0,0005.00,0014.26,0003.90
2022-10-12 03:44:00,,0826.3,5.01,0.00,30.1,28.4,00.0,39.0,31.9,15.8,0000.0,0005.04,0014.34,0003.90
2022-10-12 03:45:00,,0826.3,5.00,0.00,30.1,28.4,00.0,39.0,31.9,15.8,0000.0,0005.04,0013.84,0003.90
2022-10-12 03:46:00,,0826.2,5.00,0.00,30.1,28.3,00.0,39.0,31.8,15.9,0000.0,0005.06,0014.02,0003.91
2022-10-12 03:47:00,,0826.4,5.00,0.00,30.1,28.2,00.0,39.0,31.7,15.9,0000.0,0005.05,0013.91,0003.92
2022-10-12 03:48:00,,0826.4,5.01,0.00,30.0,28.2,00.0,39.0,31.7,15.9,0000.0,0005.05,0013.60,0003.93
2022-10-12 03:49:00,,0826.5,4.99,0.00,30.0,28.3,00.0,39.0,31.7,15.9,0000.0,0005.09,0013.14,0003.93
2022-10-12 03:50:00,,0826.5,4.99,0.00,30.0,28.3,00.0,38.9,31.8,15.9,0000.0,0005.12,0013.35,0003.93
2022-10-12 03:51:00,,0826.4,5.00,0.00,30.0,28.3,00.0,38.9,31.7,15.9,0000.0,0005.11,0013.66,0003.92
2022-10-12 03:52:00,,0826.3,5.00,0.00,30.0,28.2,00.0,38.9,31.7,16.0,0000.0,0005.08,0013.56,0003.92
2022-10-12 03:53:00,,0826.4,5.01,0.00,30.0,28.2,00.0,38.9,31.7,16.0,0000.0,0005.07,0013.32,0003.93
2022-10-12 03:54:00,,0826.5,5.00,0.00,30.0,28.1,00.0,38.9,31.7,16.0,0000.0,0005.07,0013.33,0003.93
2022-10-12 03:55:00,,0826.5,5.00,0.00,29.9,28.0,00.0,38.9,31.6,16.0,0000.0,0005.04,0013.13,0003.93
2022-10-12 03:56:00,,0826.5,4.99,0.00,29.9,28.0,00.0,38.9,31.6,16.0,0000.0,0005.04,0012.99,0003.94
2022-10-12 03:57:00,,0826.5,4.99,0.00,29.9,28.0,00.0,38.8,31.6,16.0,0000.0,0005.02,0012.49,0003.93
2022-10-12 03:58:00,,0826.5,5.01,0.00,29.9,28.1,00.0,38.8,31.6,16.0,0000.0,0005.01,0012.12,0003.93
2022-10-12 03:59:00,,0826.5,5.01,0.00,29.9,28.1,00.0,38.8,31.6,16.0,0000.0,0004.97,0011.69,0003.92
